Regional Weather Roundup
Issued by NWS

Home | Current Version | Previous Version | Graphics & Text | Print | Product List | Glossary On
Versions: 1 2 3 4 5 6 7 8 9 10 11 12 13 14 15 16 17 18 19 20 21 22 23 24 25 26 27 28 29 30 31 32 33 34 35 36 37 38 39 40 41 42 43 44 45 46 47 48 49 50
000
ASUS43 KFSD 271402
RWRSD

WEATHER ROUNDUP FOR SOUTH DAKOTA
NATIONAL WEATHER SERVICE SIOUX FALLS SD
800 AM CST FRI FEB 27 2015

NOTE: "FAIR" INDICATES FEW OR NO CLOUDS BELOW 12,000 FEET WITH NO
SIGNIFICANT WEATHER AND/OR OBSTRUCTIONS TO VISIBILITY.


SDZ001>005-009-010-012>017-271500-
NORTHWEST AND NORTH CENTRAL SOUTH DAKOTA

CITY           SKY/WX    TMP DP  RH WIND       PRES   REMARKS
BUFFALO          N/A     -4 -10  75 SE7       30.10F WCI -18
FAITH            N/A     -5 -10  79 S14       30.29F WCI -25
MOBRIDGE       MOCLDY    -8 -13  78 SE6       30.39F WCI -21
$$

SDZ012>016-024>037-041>051-057-063-072>074-271500-
SOUTHWEST AND SOUTH CENTRAL SOUTH DAKOTA

CITY           SKY/WX    TMP DP  RH WIND       PRES   REMARKS
RAPID CTY ARPT CLEAR     -3  -8  79 SE10      30.22F WCI -20
PIERRE         CLEAR     -8 -12  83 CALM      30.43F
CUSTER         CLEAR     -7 -13  75 CALM      29.99F
ELLSWORTH AFB  CLEAR     -1  -8  73 S16       30.19F WCI -21
PHILIP         CLEAR     -9 -17  68 CALM      30.37F
PINE RIDGE     CLEAR      2  -5  72 SW7       30.24F WCI -11
WINNER         FAIR       2  -8  63 S7        30.43S WCI -11
$$

SDZ004>011-016>023-039-040-271500-
NORTHEAST SOUTH DAKOTA

CITY           SKY/WX    TMP DP  RH WIND       PRES   REMARKS
ABERDEEN       MOCLDY   -17 -23  73 CALM      30.50F
WATERTOWN      PTCLDY   -12 -15  86 S3        30.45S
SISSETON         N/A     -5 -11  75 W5        30.48F WCI -16
$$

SDZ017-020-022-023-036>040-048>070-271500-
SOUTHEAST SOUTH DAKOTA

CITY           SKY/WX    TMP DP  RH WIND       PRES   REMARKS
SIOUX FALLS    CLEAR     -9 -13  83 CALM      30.53S
HURON          PTCLDY   -15 -19  82 CALM      30.52F
MITCHELL       CLEAR     -3  -9  75 SW3       30.55S
YANKTON        CLEAR     -4  -9  77 CALM      30.58R
$$

ABBREVIATIONS USED IN REMARKS
   TC - TEMPERATURE IN CELSIUS
  WCI - WIND CHILL INDEX
   HX - HEAT INDEX
  VSB - VISIBILITY




USA.gov is the U.S. government's official web portal to all federal, state and local government web resources and services.